Regional Weather Roundup
Issued by NWS

Home | Current Version | Previous Version | Graphics & Text | Print | Product List | Glossary Off
Versions: 1 2 3 4 5 6 7 8 9 10 11 12 13 14 15 16 17 18 19 20 21 22 23 24 25 26 27 28 29 30 31 32 33 34 35 36 37 38 39 40 41 42 43 44 45 46 47 48 49 50

000
ASUS43 KMKX 230321
RWRWI

WISCONSIN REGIONAL WEATHER ROUNDUP
NATIONAL WEATHER SERVICE MILWAUKEE/SULLIVAN WI
1000 PM CDT FRI AUG 22 2014

NOTE: "FAIR" INDICATES FEW OR NO CLOUDS BELOW 12,000 FEET WITH NO
SIGNIFICANT WEATHER AND/OR OBSTRUCTIONS TO VISIBILITY.

WIZ001-002-006>008-014>016-023>028-230400-
NORTHWEST WISCONSIN

CITY           SKY/WX    TMP DP  RH WIND       PRES   REMARKS
SUPERIOR ARPT  CLOUDY    61  60  97 CALM      30.07R
ASHLAND        CLOUDY    64  61  90 CALM      30.06R
HAYWARD        CLOUDY    67  65  93 N5        30.06R
SIREN          CLOUDY    67  65  90 NE5       30.05S
RICE LAKE      CLOUDY    70  67  90 N5        30.05R
LADYSMITH      CLOUDY    71  68  91 N5        30.05R
EAU CLAIRE     PTCLDY    72  70  93 N6        30.00S
MENOMONIE      CLEAR     72  68  87 NW3       30.02S
NEW RICHMOND   CLOUDY    71  69  93 NE3       30.04R
OSCEOLA        CLOUDY    71  70  96 NE5       30.05S
$$

WIZ003>005-009-010-017-018-230400-
NORTH CENTRAL WISCONSIN

CITY           SKY/WX    TMP DP  RH WIND       PRES   REMARKS
WOODRUFF       CLOUDY    72  69  91 N3        30.04R
RHINELANDER    CLOUDY    68  68 100 CALM      30.05R FOG
EAGLE RIVER    CLOUDY    69  69 100 CALM      30.03S FOG
LAND O LAKES   FOG       69  69 100 CALM      30.05R VSB 1/2
PHILLIPS       CLOUDY    67  66  97 N5        30.04S
TOMAHAWK       CLOUDY    68  67  96 CALM      30.04R FOG
MEDFORD        CLOUDY    71  70  98 CALM      30.03R FOG
MERRILL        FOG       67  67 100 CALM      30.02R VSB 1/2
$$

WIZ029-030-035-036-043>047-230400-
CENTRAL WISCONSIN

CITY           SKY/WX    TMP DP  RH WIND       PRES   REMARKS
WAUSAU         CLOUDY    73  71  93 E6        30.00R FOG
MOSINEE        PTCLDY    72  72 100 NE6       30.02R FOG
MARSHFIELD     CLEAR     74  71  91 NE9       30.00R FOG
STEVENS POINT  MOCLDY    73  71  95 CALM      30.01R FOG
WAUPACA        PTCLDY    75  73  92 E6        30.00R FOG
WAUTOMA        PTCLDY    76  74  93 E6        29.99R
WISC RAPIDS    MOCLDY    76  73  91 E6        30.00R
CAMP DOUGLAS   CLEAR     73  73 100 W5        29.99R
$$

WIZ011>013-019>022-031-037>040-048>050-230400-
NORTHEAST WISCONSIN

CITY           SKY/WX    TMP DP  RH WIND       PRES   REMARKS
ANTIGO         FOG       70  70 100 SE7       30.04R VSB 3/4
STURGEON BAY   CLOUDY    70  66  88 E3        30.02S
GREEN BAY      MOCLDY    70  69  97 E5        30.01R
MANITOWOC      FOG       70  68  94 SE3       30.02R VSB 1/2
APPLETON       MOCLDY    72  70  94 SE8       30.00R FOG
CLINTONVILLE   CLOUDY    72  70  94 E5        30.01R
OSHKOSH        MOCLDY    74  70  87 E6        29.99R
$$

WIZ032>034-041-042-053>061-230400-
SOUTHWEST WISCONSIN

CITY           SKY/WX    TMP DP  RH WIND       PRES   REMARKS
LA CROSSE      PTCLDY    76  73  91 N6        29.97R
SPARTA         PTCLDY    72  70  95 CALM      30.00R
VIROQUA        FAIR      75  75 100 N5        30.01R
BOSCOBEL       MOCLDY    78  75  90 CALM      29.96R FOG     HX  81
PRAIRIE DU CHI MOCLDY    78  75  90 CALM      29.96R HX  82
PLATTEVILLE    FAIR      78  76  94 S5        29.99S HX  80
$$

WIZ056-057-062-063-064-067-068-230400-
SOUTH CENTRAL WISCONSIN

CITY           SKY/WX    TMP DP  RH WIND       PRES   REMARKS
BARABOO/DELLS  PTCLDY    76  72  89 CALM      29.98R
LONE ROCK      PTCLDY    80  74  81 CALM      29.96R HX  85
WATERTOWN      CLEAR     73  72  97 E3        29.99R
MADISON        PTCLDY    78  74  87 E10       29.97R HX  81
MIDDLETON      FAIR      77  76  99 CALM      29.97S
MONROE         CLEAR     75  73  94 S7        29.98S
JANESVILLE     PTCLDY    77  73  88 CALM      29.97S
$$

WIZ051-052-058>065-066-070>072-230400-
SOUTHEAST WISCONSIN

CITY           SKY/WX    TMP DP  RH WIND       PRES   REMARKS
MILWAUKEE      FOG       70  69  97 NE6       30.00S VSB 1/4
WAUKESHA       CLOUDY    70  68  94 E5        30.02R FOG
MILWAUKEE/TIMM FOG       70  66  88 CALM      30.02R VSB 3/4
RACINE         CLOUDY    72  70  93 N5        30.02R FOG
BURLINGTON     DRIZZLE   72  71  97 E3        30.00R
KENOSHA        CLOUDY    73  72  96 NE6       30.00R FOG
FOND DU LAC    PTCLDY    73  69  87 SE9       29.99R
SHEBOYGAN      FOG       68  67  96 CALM      30.01R VSB 1/4
WEST BEND      FOG       68  66  94 E3        30.02R VSB 1
JUNEAU         CLEAR     73  46  38 E8        30.00S HAZE
$$

LSZ147-162-230400-
LAKE SUPERIOR

STATION/POSITION TIME  TEMP    WIND        PRES    WAVE
                       AIR SEA DIR/SP/G            HT/PER
                 (UTC) (F)     (DEG/KT/KT) (MB)    (FT/S)
W MID LAKE BUOY  0250   58 59   30/ 12/ 14 1016.8S   2/ 4
DEVILS ISLAND    0300   61      60/  8/  9 1017.6R
PORT WING        0200   61     350/  6/  7 1017.6
SAXON HARBOR     0200   62        CALM     1017.3R
$$

LMZ867-665-643>646-230400-
LAKE MICHIGAN

STATION/POSITION TIME  TEMP    WIND        PRES    WAVE
                       AIR SEA DIR/SP/G            HT/PER
                 (UTC) (F)     (DEG/KT/KT) (MB)    (FT/S)
N MID LAKE BUOY  0250   68 66   60/  4/  4 1016.0R   0
NORTHPORT PIER   0200   67     120/  3/  4 1016.3R
SISTER BAY       0211   68     120/  5/  7   N/A
ALGOMA LAKESHORE 0223           50/  3/  4   N/A
KEWAUNEE LAKESHO 0200   67      40/  2/  2 1015.1R
SHEBOYGAN LAKESH 0300   67 65   10/  2/  2 1016.2R
ATWATER BUOY     0300   69      40/  4/  4 1017.2R
MILWAUKEE LAKESH 0300   69      30/  5/  5   N/A
S MID LAKE BUOY  0250   71 71   40/  8/ 10 1015.4R   0
KENOSHA   LAKESH 0300   72      10/  5/  5 1015.2R
$$

TC  - TEMPERATURE IN CELSIUS
VSB - VISIBILITY IN STATUTE MILES
WCI - WIND CHILL INDEX
HX  - HEAT INDEX



USA.gov is the U.S. government's official web portal to all federal, state and local government web resources and services.